Regional Weather Roundup
Issued by NWS

Home | Current Version | Previous Version | Graphics & Text | Print | Product List | Glossary On
Versions: 1 2 3 4 5 6 7 8 9 10 11 12 13 14 15 16 17 18 19 20 21 22 23 24 25 26 27
000
ASUS45 KCYS 250510
RWRWY

WYOMING REGIONAL WEATHER ROUNDUP
NATIONAL WEATHER SERVICE CHEYENNE WY
1100 PM MDT FRI MAR 24 2017

NOTE:  "FAIR" INDICATES FEW OR NO CLOUDS BELOW 12,000 FEET
WITH NO SIGNIFICANT WEATHER AND/OR OBSTRUCTIONS TO VISIBILITY.

WYZ001-250600-
YELLOWSTONE NATIONAL PARK

CITY           SKY/WX    TMP DP  RH WIND       PRES   REMARKS
LK YELLOWSTONE   N/A     31  26  82 VRB3      30.08R
W YELLOWSTONE  NOT AVBL

$$
WYZ002>013-054>058-071-098>099-250600-
NORTHERN WYOMING

CITY           SKY/WX    TMP DP  RH WIND       PRES   REMARKS
JACKSON        CLOUDY    39  30  70 SW9       30.09R WCI  33
CODY           FAIR      49  20  31 SW14      29.92S
GREYBULL       FAIR      54  31  41 SE9       29.89S
WORLAND        FAIR      48  34  58 SE16      29.90F
SHERIDAN       FAIR      42  33  70 E7        29.83F
BUFFALO        FAIR      51  26  37 S18       29.88F
GILLETTE       FAIR      45  28  51 S18       29.93F
HULETT         FAIR      50  30  46 S15G26    29.96F
NEWCASTLE      FAIR      45  27  49 SE17G24   30.05F

$$
WYZ014>020-022>026-101>103-250600-
CENTRAL WYOMING

CITY           SKY/WX    TMP DP  RH WIND       PRES   REMARKS
BIG PINEY      CLOUDY    34  30  85 N5        30.11S WCI  30
PINEDALE       CLOUDY    34  28  80 CALM      30.11S
DUBOIS         FAIR      37  21  52 N16G23    30.00S WCI  28
LANDER         FAIR      50  15  24 W7        29.95F
RIVERTON       FAIR      44  31  60 SW7       29.98S
CASPER         FAIR      44  28  53 S14       30.00F
DOUGLAS        FAIR      38  26  62 SE10      30.04F WCI  31

$$
WYZ021-027>030-104>119-250600-
SOUTHERN WYOMING

CITY           SKY/WX    TMP DP  RH WIND       PRES   REMARKS
EVANSTON       CLOUDY    42  28  57 S3        30.09R
KEMMERER         N/A     34  25  69 NW8       30.11R WCI  27
FORT BRIDGER   FAIR      42  32  69 CALM      30.12S
ROCK SPRINGS   FAIR      43  31  62 SE5       30.09F
DIXON            N/A     33  25  73 NE6       30.18S WCI  28
RAWLINS        FAIR      37  21  52 SW3       30.11F
SARATOGA       FAIR      32  21  64 SE6       30.13F WCI  26
LARAMIE        FAIR      29  21  72 S10       30.11F WCI  20
CHEYENNE       FAIR      34  23  64 SW6       30.13F WCI  29
TORRINGTON     FAIR      35  25  66 E8        30.09F WCI  29
PINE BLUFFS    FAIR      30  25  80 W5        30.14S WCI  25

$$




USA.gov is the U.S. government's official web portal to all federal, state and local government web resources and services.